Regional Weather Roundup
Issued by NWS Little Rock, AR

Home | Current Version | Previous Version | Graphics & Text | Print | Product List | Glossary On
Versions: 1 2 3 4 5 6 7 8 9 10 11 12 13 14 15 16 17 18 19 20 21 22 23 24 25 26 27 28 29 30 31 32 33 34 35 36 37 38 39 40 41 42 43 44 45 46 47 48 49 50
000
ASUS44 KLZK 301905
RWRLZK

WEATHER ROUNDUP FOR ARKANSAS
NATIONAL WEATHER SERVICE LITTLE ROCK AR
200 PM CDT WED JUL 30 2014

NOTE: "FAIR" INDICATES FEW OR NO CLOUDS BELOW 12,000 FEET WITH NO
SIGNIFICANT WEATHER AND/OR OBSTRUCTIONS TO VISIBILITY.

ARZ001-003-010-029-302000-
NORTHWEST ARKANSAS

CITY           SKY/WX    TMP DP  RH WIND       PRES   REMARKS
FAYETTEVILLE   LGT RAIN  70  68  93 SW6       30.12S FOG
FORT SMITH     LGT RAIN  71  68  90 S6        30.10F
HARRISON       HVY RAIN  65  65 100 N7        30.13R FOG
BENTONVILLE    CLOUDY    70  66  88 SW8       30.12S
ROGERS         LGT RAIN  70  67  90 SW10      30.12F FOG
SILOAM SPGS    CLOUDY    70  63  78 SW6       30.12F
HIGHFILL       LGT RAIN  71  70  96 SW6       30.11F
SPRINGDALE     LGT RAIN  70  68  94 SW12      30.13F FOG
$$

ARZ004-005-016-302000-
NORTH CENTRAL ARKANSAS

CITY           SKY/WX    TMP DP  RH WIND       PRES   REMARKS
BATESVILLE     CLOUDY    73  61  64 SW5       30.11S
FLIPPIN        CLOUDY    70  66  88 N3        30.13S
MTN HOME       HVY RAIN  67  66  97 SW3       30.12S FOG
$$

ARZ040-041-302000-
WEST CENTRAL ARKANSAS

CITY           SKY/WX    TMP DP  RH WIND       PRES   REMARKS
MENA           CLOUDY    72  68  88 CALM      30.13F
MOUNT IDA      LGT RAIN  72  64  76 CALM      30.11F
$$

ARZ009-017-025-026-028-302000-
NORTHEAST ARKANSAS

CITY           SKY/WX    TMP DP  RH WIND       PRES   REMARKS
CORNING        FAIR      81  61  50 SW10      30.10S
JONESBORO      PTSUNNY   79  59  50 S10       30.09F
NEWPORT        CLOUDY    82  62  50 S6        30.10F
WALNUT RIDGE   CLOUDY    79  59  50 S9        30.09S
BLYTHEVILLE    PTSUNNY   80  55  42 SW5       30.10S
$$

ARZ022-023-033-042-044-302000-
CENTRAL ARKANSAS

CITY           SKY/WX    TMP DP  RH WIND       PRES   REMARKS
LITTLE ROCK    CLOUDY    78  58  49 SW6       30.11S
N LITTLE ROCK  CLOUDY    76  64  65 SW5       30.11S
JACKSONVILLE   CLOUDY    79  62  55 W8        30.10F
SEARCY         CLOUDY    78  65  64 W3        30.11F
HOT SPRINGS    LGT RAIN  72  65  78 N5        30.13S
RUSSELLVILLE   LGT RAIN  71  64  78 SW3       30.12S
CLINTON        FAIR      75  64  69 SW6       30.11S
$$

ARZ036-302000-
EAST ARKANSAS

CITY           SKY/WX    TMP DP  RH WIND       PRES   REMARKS
WEST MEMPHIS   SUNNY     81  59  47 VRB3      30.09F
$$

ARZ050-053-066-070-073-302000-
SOUTHWEST ARKANSAS

CITY           SKY/WX    TMP DP  RH WIND       PRES   REMARKS
ARKADELPHIA    FAIR      76  67  73 W5        30.12S
CAMDEN         CLOUDY    81  61  50 CALM      30.09F
TEXARKANA      LGT RAIN  77  65  66 S3        30.10F
EL DORADO      CLOUDY    79  64  60 S3        30.10F
DE QUEEN       LGT RAIN  72  69  90 NE3       30.09F
$$

ARZ056-057-069-302000-
SOUTHEAST ARKANSAS

CITY           SKY/WX    TMP DP  RH WIND       PRES   REMARKS
PINE BLUFF     CLOUDY    78  63  59 SW7       30.11S
STUTTGART      MOSUNNY   84  63  48 MISG      30.11S HX  85
MONTICELLO     PTSUNNY   80  60  50 E3        30.10F

$$




USA.gov is the U.S. government's official web portal to all federal, state and local government web resources and services.